Regional Weather Roundup
Issued by NWS

Home | Current Version | Previous Version | Text Only | Print | Product List | Glossary Off
Versions: 1 2 3 4 5 6 7 8 9 10 11 12 13 14 15 16 17 18 19 20 21 22 23 24 25 26 27 28 29 30 31 32 33 34 35 36 37 38 39 40 41 42 43 44 45 46 47 48 49 50

560
ASUS44 KLIX 260505
RWRLA
LOUISIANA WEATHER ROUNDUP
NATIONAL WEATHER SERVICE NEW ORLEANS LA
1200 AM CDT SAT JUL 26 2014

NOTE: "FAIR" INDICATES FEW OR NO CLOUDS BELOW 12,000 FEET WITH NO
      SIGNIFICANT WEATHER AND/OR OBSTRUCTIONS TO VISIBILITY.
      SKY/WX - SKY CONDITION AND SIGNIFICANT WEATHER.
      TMP - AIR TEMPERATURE.    DP   - DEWPOINT TEMPERATURE.
      RH  - RELATIVE HUMIDITY.  PRES - PRESSURE.
      HX  - HEAT INDEX.         WCI  - WIND CHILL INDEX.

*  THESE STATIONS ARE NOT NWS OR FAA STATIONS AND ARE NOT UNDER
   NWS QUALITY CONTROL.

LAZ040-048-061>063-065-066-069-260600-
SOUTHEAST LOUISIANA

CITY           SKY/WX    TMP DP  RH WIND       PRES   REMARKS
N.O. AUDUBON     N/A     82  76  82 MISG        N/A
N.O. INTL ARPT MOCLDY    80  75  84 SW5       30.03S
N.O. LAKEFRONT MOCLDY    82  75  79 SW9       30.04S
N.O. DOWNTOWN* FAIR      82  72  69 SW5       30.04S
SLIDELL        CLOUDY    80  76  87 CALM      30.03S
BATON ROUGE    MOCLDY    82  74  76 SW10      30.02S
BOOTHVILLE     CLEAR     83  77  82 SW9       30.05R
BELLE CHASSE   PTCLDY    80  75  84 CALM      30.03S
BOGALUSA*      FAIR      77  73  86 CALM      30.04S
GALLIANO*      NOT AVBL
NEW ROADS*     FAIR      79  75  87 CALM      30.02S
GONZALES*      FAIR      78  78 100 CALM      30.03S
HAMMOND*       CLOUDY    81  73  78 E3        30.04S
HOUMA*         PTCLDY    79  73  81 CALM      30.04S
PORT FOURCHON* CLEAR     84  75  74 SW8       30.06F

$$

LAZ041-044-053-054-260600-
SOUTHWEST LOUISIANA

CITY           SKY/WX    TMP DP  RH WIND       PRES   REMARKS
LAKE CHARLES   PTCLDY    81  76  84 S3        30.02R
LAFAYETTE      PTCLDY    79  76  90 SW6       30.03S
PATTERSON      PTCLDY    79  75  89 SW5       30.07S
SALT POINT       N/A     87  76  69 VRB6      30.03R HX  97
NEW IBERIA     PTCLDY    80  76  87 S3        30.04S
CHENAULT AIRPK PTCLDY    82  75  80 S6        30.03R

$$

LAZ027-028-260600-
CENTRAL LOUISIANA

CITY           SKY/WX    TMP DP  RH WIND       PRES   REMARKS
FORT POLK      MOCLDY    80  75  84 S3        30.02R
ALEXANDRIA INT PTCLDY    80  75  84 S6        29.99S
ALEXANDRIA     CLEAR     78  75  90 CALM      30.01S

$$

LAZ001-002-260600-
NORTHWEST LOUISIANA

CITY           SKY/WX    TMP DP  RH WIND       PRES   REMARKS
SHREVEPORT     PTCLDY    79  74  84 S6        29.98S
BARKSDALE AFB  CLEAR     76  74  94 S6        29.99S
DTN SHREVEPORT CLEAR     80  72  76 SE5       29.98S

$$

LAZ014-016-260600-
NORTHEAST LOUISIANA

CITY           SKY/WX    TMP DP  RH WIND       PRES   REMARKS
MONROE         CLEAR     79  75  87 SE3       30.00S
TALLULAH       CLEAR     73  70  90 CALM      30.00S FOG

$$




USA.gov is the U.S. government's official web portal to all federal, state and local government web resources and services.